Find Starlink 32748

NORAD ID: 62524 Int'l Des: 2025-004 Owner: SPXS Country: US Constellation: starlink operational
LEOCIRCULAR

当前视图

正在加载3D地球...

About Starlink 32748

Starlink 32748 (NORAD 62524) is a starlink constellation satellite (v2 mini) launched Jan 8, 2025 by SPXS of US. It operates in LEO, CIRCULAR orbit with a mass of 730.00 kg.

即将过境

Passes for default location (London). Set your location on the main map for personalized predictions.

高度历史

Loading altitude history...

两行轨道根数

1 62524U 25004P 26264.21454906 .00011951 00000-0 44277-3 0 9995
2 62524 43.0062 195.4747 0003764 257.1968 102.8463 15.27601610 96368
Epoch: Sep 21, 2026 • Age: 7 hours

当前状态

高度 487.2 km
远地点 / 近地点 N/A
速度 7.63 km/s
星下点 36.87°N, 71.27°E
发射日期 Jan 8, 2025
运行时间 1.6 years
类型 internet

技术详情

分类 Payload
质量 730.00 kg
干质量 700.00 kg
长度 0.30 m
跨度 29.00 m
形状 ? Box + pan
制造商 SPXS
平台类型 Starlink V2M
阶段状态 In Orbit
所有者/国家 SPXS/US

Most Searched